Volver al catálogo

FENGYUN 1C DEB

ActivoPO
NORAD 30253·DEBRIS·🇨🇳 China

Lanzado May 10, 1999 desde Taiyuan Satellite Launch Center

Loading…

Próximos Pases (próximas 24 horas)

TLE

ActualizadoSource: Space-Track

Época: Sep 14, 2026, 03:25 UTC

1 30253U 99025XN  26257.14283262  .00001028  00000-0  95405-3 0  9995
2 30253  98.7357 326.8890 0220239  26.3327   3.4861 13.73966754977951

Sigue FENGYUN 1C DEB en tiempo real con AllMySat

Download on the App Store